Index of /20260430/WXO-DD/model_gdps/15km/12/171
Name Last modified Size Description
Parent Directory -
20260430T12Z_MSC_GDPS_AirTemp_AGL-120m_LatLon0.15_PT171H.grib2 2026-04-30 16:27 907K
20260430T12Z_MSC_GDPS_AirTemp_AGL-2m_LatLon0.15_PT171H.grib2 2026-04-30 16:27 1.0M
20260430T12Z_MSC_GDPS_AirTemp_AGL-40m_LatLon0.15_PT171H.grib2 2026-04-30 16:27 809K
20260430T12Z_MSC_GDPS_AirTemp_AGL-80m_LatLon0.15_PT171H.grib2 2026-04-30 16:27 915K
20260430T12Z_MSC_GDPS_AirTemp_IsbL-0001_LatLon0.15_PT171H.grib2 2026-04-30 16:27 661K
20260430T12Z_MSC_GDPS_AirTemp_IsbL-0005_LatLon0.15_PT171H.grib2 2026-04-30 16:27 696K
20260430T12Z_MSC_GDPS_AirTemp_IsbL-0500_LatLon0.15_PT171H.grib2 2026-04-30 16:27 1.0M
20260430T12Z_MSC_GDPS_AirTemp_IsbL-0700_LatLon0.15_PT171H.grib2 2026-04-30 16:27 958K
20260430T12Z_MSC_GDPS_AirTemp_IsbL-0850_LatLon0.15_PT171H.grib2 2026-04-30 16:27 1.1M
20260430T12Z_MSC_GDPS_AirTemp_IsbL-0925_LatLon0.15_PT171H.grib2 2026-04-30 16:27 1.1M
20260430T12Z_MSC_GDPS_AirTemp_IsbL-1000_LatLon0.15_PT171H.grib2 2026-04-30 16:27 1.1M
20260430T12Z_MSC_GDPS_Albedo_Sfc_LatLon0.15_PT171H.grib2 2026-04-30 16:27 242K
20260430T12Z_MSC_GDPS_ConvectivePrecip-Accum_Sfc_LatLon0.15_PT171H.grib2 2026-04-30 16:27 3.8M
20260430T12Z_MSC_GDPS_DewPointDepression_AGL-2m_LatLon0.15_PT171H.grib2 2026-04-30 16:27 765K
20260430T12Z_MSC_GDPS_DewPointDepression_IsbL-0500_LatLon0.15_PT171H.grib2 2026-04-30 16:27 1.0M
20260430T12Z_MSC_GDPS_DewPointDepression_IsbL-0700_LatLon0.15_PT171H.grib2 2026-04-30 16:27 1.1M
20260430T12Z_MSC_GDPS_DewPointDepression_IsbL-0850_LatLon0.15_PT171H.grib2 2026-04-30 16:27 1.2M
20260430T12Z_MSC_GDPS_DewPointDepression_IsbL-0925_LatLon0.15_PT171H.grib2 2026-04-30 16:27 1.0M
20260430T12Z_MSC_GDPS_DewPointDepression_IsbL-1000_LatLon0.15_PT171H.grib2 2026-04-30 16:27 1.0M
20260430T12Z_MSC_GDPS_DewPoint_AGL-2m_LatLon0.15_PT171H.grib2 2026-04-30 16:27 615K
20260430T12Z_MSC_GDPS_DownwardLongwaveRadiationFlux-Accum_Sfc_LatLon0.15_PT171H.grib2 2026-04-30 16:27 642K
20260430T12Z_MSC_GDPS_DownwardShortwaveRadiationFlux-Accum_Sfc_LatLon0.15_PT171H.grib2 2026-04-30 16:27 827K
20260430T12Z_MSC_GDPS_FreezingRain-Accum_Sfc_LatLon0.15_PT171H.grib2 2026-04-30 16:27 488K
20260430T12Z_MSC_GDPS_GeopotentialHeight_IsbL-0001_LatLon0.15_PT171H.grib2 2026-04-30 16:27 437K
20260430T12Z_MSC_GDPS_GeopotentialHeight_IsbL-0005_LatLon0.15_PT171H.grib2 2026-04-30 16:27 497K
20260430T12Z_MSC_GDPS_GeopotentialHeight_IsbL-0500_LatLon0.15_PT171H.grib2 2026-04-30 16:27 531K
20260430T12Z_MSC_GDPS_GeopotentialHeight_IsbL-0700_LatLon0.15_PT171H.grib2 2026-04-30 16:27 694K
20260430T12Z_MSC_GDPS_GeopotentialHeight_IsbL-0850_LatLon0.15_PT171H.grib2 2026-04-30 16:27 718K
20260430T12Z_MSC_GDPS_GeopotentialHeight_IsbL-0925_LatLon0.15_PT171H.grib2 2026-04-30 16:27 736K
20260430T12Z_MSC_GDPS_GeopotentialHeight_IsbL-1000_LatLon0.15_PT171H.grib2 2026-04-30 16:27 788K
20260430T12Z_MSC_GDPS_IcePellets-Accum_Sfc_LatLon0.15_PT171H.grib2 2026-04-30 16:27 158K
20260430T12Z_MSC_GDPS_LatentHeatNetFlux_Sfc_LatLon0.15_PT171H.grib2 2026-04-30 16:27 718K
20260430T12Z_MSC_GDPS_NetLongwaveRadiationFlux-Accum_Sfc_LatLon0.15_PT171H.grib2 2026-04-30 16:27 861K
20260430T12Z_MSC_GDPS_NetShortwaveRadiationFlux-Accum_Sfc_LatLon0.15_PT171H.grib2 2026-04-30 16:27 1.1M
20260430T12Z_MSC_GDPS_O3MixingRatio_Sfc_LatLon0.15_PT171H.grib2 2026-04-30 16:45 1.9M
20260430T12Z_MSC_GDPS_O3_EAtm_LatLon0.15_PT171H.grib2 2026-04-30 16:45 2.4M
20260430T12Z_MSC_GDPS_PlanetaryBoundaryLayerHeight_Sfc_LatLon0.15_PT171H.grib2 2026-04-30 16:27 2.5M
20260430T12Z_MSC_GDPS_Precip-Accum_Sfc_LatLon0.15_PT171H.grib2 2026-04-30 16:27 5.3M
20260430T12Z_MSC_GDPS_PrecipRate_Sfc_LatLon0.15_PT171H.grib2 2026-04-30 16:27 3.2M
20260430T12Z_MSC_GDPS_Pressure_MSL_LatLon0.15_PT171H.grib2 2026-04-30 16:27 726K
20260430T12Z_MSC_GDPS_Pressure_Sfc_LatLon0.15_PT171H.grib2 2026-04-30 16:27 1.1M
20260430T12Z_MSC_GDPS_RadiativeTemp_Sfc_LatLon0.15_PT171H.grib2 2026-04-30 16:27 672K
20260430T12Z_MSC_GDPS_Rain-Accum_Sfc_LatLon0.15_PT171H.grib2 2026-04-30 16:27 4.2M
20260430T12Z_MSC_GDPS_RelativeHumidity_AGL-2m_LatLon0.15_PT171H.grib2 2026-04-30 16:27 1.0M
20260430T12Z_MSC_GDPS_Runoff-Accum_Sfc_LatLon0.15_PT171H.grib2 2026-04-30 16:27 168K
20260430T12Z_MSC_GDPS_SensibleHeatNetFlux_Sfc_LatLon0.15_PT171H.grib2 2026-04-30 16:27 478K
20260430T12Z_MSC_GDPS_Snow-Accum_Sfc_LatLon0.15_PT171H.grib2 2026-04-30 16:27 2.1M
20260430T12Z_MSC_GDPS_SnowDepth_Sfc_LatLon0.15_PT171H.grib2 2026-04-30 16:27 1.7M
20260430T12Z_MSC_GDPS_SoilTemp_DBS-0to10cm_LatLon0.15_PT171H.grib2 2026-04-30 16:27 514K
20260430T12Z_MSC_GDPS_SoilTemp_Sfc_LatLon0.15_PT171H.grib2 2026-04-30 16:27 580K
20260430T12Z_MSC_GDPS_SoilVolumetricWaterContent_DBS-0to10cm_LatLon0.15_PT171H.grib2 2026-04-30 16:27 595K
20260430T12Z_MSC_GDPS_SoilVolumetricWaterContent_DBS-0to1cm_LatLon0.15_PT171H.grib2 2026-04-30 16:27 649K
20260430T12Z_MSC_GDPS_SpecificHumidity_AGL-120m_LatLon0.15_PT171H.grib2 2026-04-30 16:27 1.1M
20260430T12Z_MSC_GDPS_SpecificHumidity_AGL-2m_LatLon0.15_PT171H.grib2 2026-04-30 16:27 1.2M
20260430T12Z_MSC_GDPS_SpecificHumidity_AGL-40m_LatLon0.15_PT171H.grib2 2026-04-30 16:27 1.1M
20260430T12Z_MSC_GDPS_SpecificHumidity_AGL-80m_LatLon0.15_PT171H.grib2 2026-04-30 16:27 1.1M
20260430T12Z_MSC_GDPS_SpecificHumidity_IsbL-0001_LatLon0.15_PT171H.grib2 2026-04-30 16:27 1.2M
20260430T12Z_MSC_GDPS_SpecificHumidity_IsbL-0005_LatLon0.15_PT171H.grib2 2026-04-30 16:27 1.1M
20260430T12Z_MSC_GDPS_SpecificHumidity_IsbL-0500_LatLon0.15_PT171H.grib2 2026-04-30 16:27 1.5M
20260430T12Z_MSC_GDPS_SpecificHumidity_IsbL-0700_LatLon0.15_PT171H.grib2 2026-04-30 16:27 1.6M
20260430T12Z_MSC_GDPS_SpecificHumidity_IsbL-0850_LatLon0.15_PT171H.grib2 2026-04-30 16:27 2.0M
20260430T12Z_MSC_GDPS_SpecificHumidity_IsbL-0925_LatLon0.15_PT171H.grib2 2026-04-30 16:27 1.6M
20260430T12Z_MSC_GDPS_SpecificHumidity_IsbL-1000_LatLon0.15_PT171H.grib2 2026-04-30 16:27 1.5M
20260430T12Z_MSC_GDPS_SpecificHumidity_Sfc_LatLon0.15_PT171H.grib2 2026-04-30 16:27 686K
20260430T12Z_MSC_GDPS_Thickness_IsbL-0850to0700_LatLon0.15_PT171H.grib2 2026-04-30 16:27 468K
20260430T12Z_MSC_GDPS_Thickness_IsbL-1000to0500_LatLon0.15_PT171H.grib2 2026-04-30 16:27 371K
20260430T12Z_MSC_GDPS_Thickness_IsbL-1000to0850_LatLon0.15_PT171H.grib2 2026-04-30 16:27 489K
20260430T12Z_MSC_GDPS_TotalCloudCover_Sfc_LatLon0.15_PT171H.grib2 2026-04-30 16:27 840K
20260430T12Z_MSC_GDPS_UVIndex-ClearSky_Sfc_LatLon0.15_PT171H.grib2 2026-04-30 16:45 1.0M
20260430T12Z_MSC_GDPS_UVIndex_Sfc_LatLon0.15_PT171H.grib2 2026-04-30 16:45 1.5M
20260430T12Z_MSC_GDPS_UpwardLongwaveRadiationFlux_NTAtm_LatLon0.15_PT171H.grib2 2026-04-30 16:27 844K
20260430T12Z_MSC_GDPS_VerticalVelocity_IsbL-0500_LatLon0.15_PT171H.grib2 2026-04-30 16:27 1.3M
20260430T12Z_MSC_GDPS_VerticalVelocity_IsbL-0700_LatLon0.15_PT171H.grib2 2026-04-30 16:27 1.4M
20260430T12Z_MSC_GDPS_VerticalVelocity_IsbL-0850_LatLon0.15_PT171H.grib2 2026-04-30 16:27 1.6M
20260430T12Z_MSC_GDPS_WindDir_AGL-10m_LatLon0.15_PT171H.grib2 2026-04-30 16:27 1.3M
20260430T12Z_MSC_GDPS_WindDir_AGL-120m_LatLon0.15_PT171H.grib2 2026-04-30 16:27 1.4M
20260430T12Z_MSC_GDPS_WindDir_AGL-40m_LatLon0.15_PT171H.grib2 2026-04-30 16:27 1.4M
20260430T12Z_MSC_GDPS_WindDir_AGL-80m_LatLon0.15_PT171H.grib2 2026-04-30 16:27 1.4M
20260430T12Z_MSC_GDPS_WindDir_IsbL-0001_LatLon0.15_PT171H.grib2 2026-04-30 16:27 658K
20260430T12Z_MSC_GDPS_WindDir_IsbL-0005_LatLon0.15_PT171H.grib2 2026-04-30 16:27 816K
20260430T12Z_MSC_GDPS_WindDir_IsbL-0500_LatLon0.15_PT171H.grib2 2026-04-30 16:27 1.4M
20260430T12Z_MSC_GDPS_WindDir_IsbL-0700_LatLon0.15_PT171H.grib2 2026-04-30 16:27 1.6M
20260430T12Z_MSC_GDPS_WindDir_IsbL-0850_LatLon0.15_PT171H.grib2 2026-04-30 16:27 1.9M
20260430T12Z_MSC_GDPS_WindDir_IsbL-0925_LatLon0.15_PT171H.grib2 2026-04-30 16:27 2.0M
20260430T12Z_MSC_GDPS_WindDir_IsbL-1000_LatLon0.15_PT171H.grib2 2026-04-30 16:27 2.1M
20260430T12Z_MSC_GDPS_WindGust-Max_AGL-10m_LatLon0.15_PT171H.grib2 2026-04-30 16:27 2.3M
20260430T12Z_MSC_GDPS_WindGust-Min_AGL-10m_LatLon0.15_PT171H.grib2 2026-04-30 16:27 2.2M
20260430T12Z_MSC_GDPS_WindGust_AGL-10m_LatLon0.15_PT171H.grib2 2026-04-30 16:27 2.2M
20260430T12Z_MSC_GDPS_WindSpeed_AGL-10m_LatLon0.15_PT171H.grib2 2026-04-30 16:27 1.1M
20260430T12Z_MSC_GDPS_WindSpeed_AGL-120m_LatLon0.15_PT171H.grib2 2026-04-30 16:27 1.2M
20260430T12Z_MSC_GDPS_WindSpeed_AGL-40m_LatLon0.15_PT171H.grib2 2026-04-30 16:27 1.2M
20260430T12Z_MSC_GDPS_WindSpeed_AGL-80m_LatLon0.15_PT171H.grib2 2026-04-30 16:27 1.2M
20260430T12Z_MSC_GDPS_WindSpeed_IsbL-0001_LatLon0.15_PT171H.grib2 2026-04-30 16:27 648K
20260430T12Z_MSC_GDPS_WindSpeed_IsbL-0005_LatLon0.15_PT171H.grib2 2026-04-30 16:27 694K
20260430T12Z_MSC_GDPS_WindSpeed_IsbL-0500_LatLon0.15_PT171H.grib2 2026-04-30 16:27 1.1M
20260430T12Z_MSC_GDPS_WindSpeed_IsbL-0700_LatLon0.15_PT171H.grib2 2026-04-30 16:27 1.5M
20260430T12Z_MSC_GDPS_WindSpeed_IsbL-0850_LatLon0.15_PT171H.grib2 2026-04-30 16:27 1.7M
20260430T12Z_MSC_GDPS_WindSpeed_IsbL-0925_LatLon0.15_PT171H.grib2 2026-04-30 16:27 1.9M
20260430T12Z_MSC_GDPS_WindSpeed_IsbL-1000_LatLon0.15_PT171H.grib2 2026-04-30 16:27 1.8M
20260430T12Z_MSC_GDPS_WindU_AGL-10m_LatLon0.15_PT171H.grib2 2026-04-30 16:27 1.3M
20260430T12Z_MSC_GDPS_WindU_AGL-120m_LatLon0.15_PT171H.grib2 2026-04-30 16:27 969K
20260430T12Z_MSC_GDPS_WindU_AGL-40m_LatLon0.15_PT171H.grib2 2026-04-30 16:27 965K
20260430T12Z_MSC_GDPS_WindU_AGL-80m_LatLon0.15_PT171H.grib2 2026-04-30 16:27 969K
20260430T12Z_MSC_GDPS_WindU_IsbL-0001_LatLon0.15_PT171H.grib2 2026-04-30 16:27 501K
20260430T12Z_MSC_GDPS_WindU_IsbL-0005_LatLon0.15_PT171H.grib2 2026-04-30 16:27 691K
20260430T12Z_MSC_GDPS_WindU_IsbL-0500_LatLon0.15_PT171H.grib2 2026-04-30 16:27 1.1M
20260430T12Z_MSC_GDPS_WindU_IsbL-0700_LatLon0.15_PT171H.grib2 2026-04-30 16:27 1.2M
20260430T12Z_MSC_GDPS_WindU_IsbL-0850_LatLon0.15_PT171H.grib2 2026-04-30 16:27 1.4M
20260430T12Z_MSC_GDPS_WindU_IsbL-0925_LatLon0.15_PT171H.grib2 2026-04-30 16:27 1.5M
20260430T12Z_MSC_GDPS_WindU_IsbL-1000_LatLon0.15_PT171H.grib2 2026-04-30 16:27 1.4M
20260430T12Z_MSC_GDPS_WindV_AGL-10m_LatLon0.15_PT171H.grib2 2026-04-30 16:27 1.6M
20260430T12Z_MSC_GDPS_WindV_AGL-120m_LatLon0.15_PT171H.grib2 2026-04-30 16:27 969K
20260430T12Z_MSC_GDPS_WindV_AGL-40m_LatLon0.15_PT171H.grib2 2026-04-30 16:27 1.2M
20260430T12Z_MSC_GDPS_WindV_AGL-80m_LatLon0.15_PT171H.grib2 2026-04-30 16:27 969K
20260430T12Z_MSC_GDPS_WindV_IsbL-0001_LatLon0.15_PT171H.grib2 2026-04-30 16:27 785K
20260430T12Z_MSC_GDPS_WindV_IsbL-0005_LatLon0.15_PT171H.grib2 2026-04-30 16:27 860K
20260430T12Z_MSC_GDPS_WindV_IsbL-0500_LatLon0.15_PT171H.grib2 2026-04-30 16:27 1.1M
20260430T12Z_MSC_GDPS_WindV_IsbL-0700_LatLon0.15_PT171H.grib2 2026-04-30 16:27 1.2M
20260430T12Z_MSC_GDPS_WindV_IsbL-0850_LatLon0.15_PT171H.grib2 2026-04-30 16:27 1.4M
20260430T12Z_MSC_GDPS_WindV_IsbL-0925_LatLon0.15_PT171H.grib2 2026-04-30 16:27 1.4M
20260430T12Z_MSC_GDPS_WindV_IsbL-1000_LatLon0.15_PT171H.grib2 2026-04-30 16:27 1.7M